Time,TemperatureF,DewpointF,PressureIn,WindDirection,WindDirectionDegrees,WindSpeedMPH,WindSpeedGustMPH,Humidity,HourlyPrecipIn,Conditions,Clouds,dailyrainin,SoftwareType,DateUTC
2018-04-25 00:00:00,51.9,38.9,30.17,SSE,161,0.0,0.0,61,0.00,,SKC,0.00,VWS V14.00,2018-04-25 04:00:00,
2018-04-25 00:05:00,51.9,38.9,30.17,SSE,161,0.0,0.0,61,0.00,,SKC,0.00,VWS V14.00,2018-04-25 04:05:00,
2018-04-25 00:10:00,51.8,38.4,30.17,SSE,161,0.0,1.0,60,0.00,,SKC,0.00,VWS V14.00,2018-04-25 04:10:00,
2018-04-25 00:15:00,51.8,38.4,30.17,SSE,161,0.0,1.0,60,0.00,,SKC,0.00,VWS V14.00,2018-04-25 04:15:00,
2018-04-25 00:20:00,51.8,38.4,30.17,SSE,161,0.0,1.0,60,0.00,,SKC,0.00,VWS V14.00,2018-04-25 04:20:00,
2018-04-25 00:25:00,51.8,38.4,30.17,SSE,161,0.0,1.0,60,0.00,,SKC,0.00,VWS V14.00,2018-04-25 04:25:00,
2018-04-25 00:30:00,51.7,38.3,30.17,SSE,161,0.0,0.0,60,0.00,,SKC,0.00,VWS V14.00,2018-04-25 04:30:00,
2018-04-25 00:35:00,51.7,38.3,30.17,SSE,161,0.0,1.0,60,0.00,,SKC,0.00,VWS V14.00,2018-04-25 04:35:00,
2018-04-25 00:40:00,51.6,38.2,30.17,SSE,161,0.0,1.0,60,0.00,,SKC,0.00,VWS V14.00,2018-04-25 04:40:00,
2018-04-25 00:45:00,51.6,38.6,30.16,SSE,161,0.0,1.0,61,0.00,,SKC,0.00,VWS V14.00,2018-04-25 04:45:00,
2018-04-25 00:50:00,51.6,38.2,30.16,SSE,161,0.0,1.0,60,0.00,,SKC,0.00,VWS V14.00,2018-04-25 04:50:00,
2018-04-25 00:55:00,51.5,38.1,30.16,SSE,161,0.0,1.0,60,0.00,,SKC,0.00,VWS V14.00,2018-04-25 04:55:00,
2018-04-25 01:00:00,51.4,38.0,30.15,SSE,161,0.0,0.0,60,0.00,,SKC,0.00,VWS V14.00,2018-04-25 05:00:00,
2018-04-25 01:05:00,51.4,38.0,30.15,SSE,161,0.0,1.0,60,0.00,,SKC,0.00,VWS V14.00,2018-04-25 05:05:00,
2018-04-25 01:10:00,51.3,37.9,30.15,SSE,161,0.0,1.0,60,0.00,,SKC,0.00,VWS V14.00,2018-04-25 05:10:00,
2018-04-25 01:15:00,51.3,37.9,30.15,SSE,161,0.0,1.0,60,0.00,,SKC,0.00,VWS V14.00,2018-04-25 05:15:00,
2018-04-25 01:20:00,51.2,37.8,30.14,SSE,161,0.0,1.0,60,0.00,,SKC,0.00,VWS V14.00,2018-04-25 05:20:00,
2018-04-25 01:25:00,51.1,38.1,30.14,SSE,161,0.0,1.0,61,0.00,,SKC,0.00,VWS V14.00,2018-04-25 05:25:00,
2018-04-25 01:30:00,51.1,38.1,30.14,SSE,161,0.0,0.0,61,0.00,,SKC,0.00,VWS V14.00,2018-04-25 05:30:00,
2018-04-25 01:35:00,51.0,38.5,30.14,SSE,161,0.0,0.0,62,0.00,,SKC,0.00,VWS V14.00,2018-04-25 05:35:00,
2018-04-25 01:40:00,50.9,38.4,30.14,SSE,161,0.0,0.0,62,0.00,,SKC,0.00,VWS V14.00,2018-04-25 05:40:00,
2018-04-25 01:45:00,50.8,38.3,30.13,SSE,161,0.0,1.0,62,0.00,,SKC,0.00,VWS V14.00,2018-04-25 05:45:00,
2018-04-25 01:50:00,50.7,38.6,30.13,SSE,161,0.0,1.0,63,0.00,,SKC,0.00,VWS V14.00,2018-04-25 05:50:00,
2018-04-25 01:55:00,50.7,39.0,30.12,SSE,161,0.0,1.0,64,0.00,,SKC,0.00,VWS V14.00,2018-04-25 05:55:00,
2018-04-25 02:05:00,50.7,39.0,30.12,SSE,161,0.0,0.0,64,0.00,,SKC,0.00,VWS V14.00,2018-04-25 06:05:00,
2018-04-25 02:10:00,50.6,38.9,30.12,SSE,161,1.0,1.0,64,0.00,,SKC,0.00,VWS V14.00,2018-04-25 06:10:00,
2018-04-25 02:15:00,50.5,39.2,30.11,SSE,161,0.0,1.0,65,0.00,,SKC,0.00,VWS V14.00,2018-04-25 06:15:00,
2018-04-25 02:20:00,50.5,39.2,30.11,SSE,161,0.0,1.0,65,0.00,,SKC,0.00,VWS V14.00,2018-04-25 06:20:00,
2018-04-25 02:25:00,50.5,39.6,30.11,SSE,161,0.0,1.0,66,0.00,,SKC,0.00,VWS V14.00,2018-04-25 06:25:00,
2018-04-25 02:30:00,50.5,39.6,30.11,SSE,161,0.0,0.0,66,0.00,,SKC,0.00,VWS V14.00,2018-04-25 06:30:00,
2018-04-25 02:34:00,50.4,39.5,30.10,ESE,117,2.0,2.0,66,0.00,,SKC,0.00,VWS V14.00,2018-04-25 06:34:00,
2018-04-25 02:39:00,50.4,39.5,30.10,ESE,117,0.0,2.0,66,0.00,,SKC,0.00,VWS V14.00,2018-04-25 06:39:00,
2018-04-25 02:44:00,50.3,39.0,30.10,ESE,117,0.0,2.0,65,0.00,,SKC,0.00,VWS V14.00,2018-04-25 06:44:00,
2018-04-25 02:49:00,50.3,39.0,30.10,ESE,117,0.0,2.0,65,0.00,,SKC,0.00,VWS V14.00,2018-04-25 06:49:00,
2018-04-25 02:54:00,50.2,39.3,30.09,ESE,117,0.0,2.0,66,0.00,,SKC,0.00,VWS V14.00,2018-04-25 06:54:00,
2018-04-25 02:56:00,50.2,38.9,30.09,ESE,117,0.0,2.0,65,0.00,,SKC,0.00,VWS V14.00,2018-04-25 06:56:00,
2018-04-25 03:01:00,50.2,38.9,30.10,ESE,117,0.0,1.0,65,0.00,,SKC,0.00,VWS V14.00,2018-04-25 07:01:00,
2018-04-25 03:06:00,50.2,39.3,30.09,ESE,117,0.0,2.0,66,0.00,,SKC,0.00,VWS V14.00,2018-04-25 07:06:00,
2018-04-25 03:11:00,50.0,39.1,30.09,ESE,117,0.0,2.0,66,0.00,,SKC,0.00,VWS V14.00,2018-04-25 07:11:00,
2018-04-25 03:16:00,50.0,39.1,30.09,ESE,117,1.0,2.0,66,0.00,,SKC,0.00,VWS V14.00,2018-04-25 07:16:00,
2018-04-25 03:21:00,50.0,39.5,30.09,ESE,117,0.0,2.0,67,0.00,,SKC,0.00,VWS V14.00,2018-04-25 07:21:00,
2018-04-25 03:26:00,50.0,39.5,30.09,ESE,117,0.0,2.0,67,0.00,,SKC,0.00,VWS V14.00,2018-04-25 07:26:00,
2018-04-25 03:31:00,49.9,39.4,30.08,ESE,117,0.0,0.0,67,0.00,,SKC,0.00,VWS V14.00,2018-04-25 07:31:00,
2018-04-25 03:36:00,49.8,39.3,30.08,ESE,117,0.0,0.0,67,0.00,,SKC,0.00,VWS V14.00,2018-04-25 07:36:00,
2018-04-25 03:41:00,49.8,39.3,30.08,ESE,117,0.0,0.0,67,0.00,,SKC,0.00,VWS V14.00,2018-04-25 07:41:00,
2018-04-25 03:46:00,49.7,39.6,30.08,ESE,117,0.0,0.0,68,0.00,,SKC,0.00,VWS V14.00,2018-04-25 07:46:00,
2018-04-25 03:51:00,49.7,39.6,30.08,ESE,117,0.0,1.0,68,0.00,,SKC,0.00,VWS V14.00,2018-04-25 07:51:00,
2018-04-25 03:56:00,49.8,40.0,30.08,ESE,117,0.0,1.0,69,0.00,,SKC,0.00,VWS V14.00,2018-04-25 07:56:00,
2018-04-25 04:01:00,49.8,40.0,30.07,ESE,117,0.0,0.0,69,0.00,,SKC,0.00,VWS V14.00,2018-04-25 08:01:00,
2018-04-25 04:06:00,49.8,40.0,30.07,ESE,117,0.0,1.0,69,0.00,,SKC,0.00,VWS V14.00,2018-04-25 08:06:00,
2018-04-25 04:11:00,49.8,40.0,30.07,ESE,117,0.0,1.0,69,0.00,,SKC,0.00,VWS V14.00,2018-04-25 08:11:00,
2018-04-25 04:16:00,49.8,40.0,30.07,ESE,117,0.0,1.0,69,0.00,,SKC,0.00,VWS V14.00,2018-04-25 08:16:00,
2018-04-25 04:21:00,49.8,40.0,30.06,ESE,117,0.0,1.0,69,0.00,,SKC,0.00,VWS V14.00,2018-04-25 08:21:00,
2018-04-25 04:26:00,49.8,40.0,30.06,ESE,117,0.0,1.0,69,0.00,,SKC,0.00,VWS V14.00,2018-04-25 08:26:00,
2018-04-25 04:31:00,49.8,40.0,30.06,ESE,117,0.0,0.0,69,0.00,,SKC,0.00,VWS V14.00,2018-04-25 08:31:00,
2018-04-25 04:36:00,49.8,40.4,30.05,ESE,117,0.0,0.0,70,0.00,,SKC,0.00,VWS V14.00,2018-04-25 08:36:00,
2018-04-25 04:41:00,49.8,40.4,30.05,ESE,117,0.0,0.0,70,0.00,,SKC,0.00,VWS V14.00,2018-04-25 08:41:00,
2018-04-25 04:46:00,49.8,40.4,30.05,ESE,117,0.0,0.0,70,0.00,,SKC,0.00,VWS V14.00,2018-04-25 08:46:00,
2018-04-25 04:51:00,49.7,40.7,30.05,ESE,117,0.0,0.0,71,0.00,,SKC,0.00,VWS V14.00,2018-04-25 08:51:00,
2018-04-25 04:56:00,49.7,40.7,30.05,ESE,117,0.0,0.0,71,0.00,,SKC,0.00,VWS V14.00,2018-04-25 08:56:00,
2018-04-25 05:01:00,49.7,40.7,30.05,ESE,117,0.0,0.0,71,0.00,,SKC,0.00,VWS V14.00,2018-04-25 09:01:00,
2018-04-25 05:06:00,49.7,40.7,30.05,ESE,117,0.0,0.0,71,0.00,,SKC,0.00,VWS V14.00,2018-04-25 09:06:00,
2018-04-25 05:11:00,49.7,41.0,30.05,ESE,117,0.0,0.0,72,0.00,,SKC,0.00,VWS V14.00,2018-04-25 09:11:00,
2018-04-25 05:16:00,49.7,41.0,30.05,ESE,117,0.0,0.0,72,0.00,,SKC,0.00,VWS V14.00,2018-04-25 09:16:00,
2018-04-25 05:20:00,49.6,41.3,30.05,ESE,117,0.0,0.0,73,0.00,,SKC,0.00,VWS V14.00,2018-04-25 09:20:00,
2018-04-25 05:25:00,49.7,41.0,30.05,ESE,117,0.0,0.0,72,0.00,,SKC,0.00,VWS V14.00,2018-04-25 09:25:00,
2018-04-25 05:30:00,49.7,41.4,30.05,ESE,117,0.0,0.0,73,0.00,,SKC,0.00,VWS V14.00,2018-04-25 09:30:00,
2018-04-25 05:35:00,49.6,41.7,30.05,ESE,117,0.0,0.0,74,0.00,,SKC,0.00,VWS V14.00,2018-04-25 09:35:00,
2018-04-25 05:40:00,49.6,42.4,30.05,ESE,117,0.0,0.0,76,0.00,,SKC,0.00,VWS V14.00,2018-04-25 09:40:00,
2018-04-25 05:45:00,49.6,43.0,30.05,ESE,117,0.0,0.0,78,0.00,,SKC,0.00,VWS V14.00,2018-04-25 09:45:00,
2018-04-25 05:50:00,49.4,43.5,30.05,ESE,117,0.0,0.0,80,0.00,,SKC,0.00,VWS V14.00,2018-04-25 09:50:00,
2018-04-25 05:55:00,49.2,43.6,30.05,ESE,117,0.0,0.0,81,0.00,,SKC,0.00,VWS V14.00,2018-04-25 09:55:00,
2018-04-25 06:00:00,48.9,44.0,30.05,ESE,117,0.0,0.0,83,0.00,,SKC,0.00,VWS V14.00,2018-04-25 10:00:00,
2018-04-25 06:05:00,48.7,44.1,30.05,ESE,117,0.0,0.0,84,0.01,,SKC,0.01,VWS V14.00,2018-04-25 10:05:00,
2018-04-25 06:10:00,48.6,44.3,30.05,ESE,117,0.0,0.0,85,0.01,,SKC,0.01,VWS V14.00,2018-04-25 10:10:00,
2018-04-25 06:15:00,48.4,44.4,30.05,ESE,117,0.0,0.0,86,0.01,,SKC,0.01,VWS V14.00,2018-04-25 10:15:00,
2018-04-25 06:20:00,48.4,44.7,30.05,ESE,117,0.0,0.0,87,0.01,,SKC,0.01,VWS V14.00,2018-04-25 10:20:00,
2018-04-25 06:25:00,48.3,44.9,30.05,ESE,117,0.0,0.0,88,0.01,,SKC,0.01,VWS V14.00,2018-04-25 10:25:00,
2018-04-25 06:30:00,48.2,44.8,30.05,ESE,117,0.0,0.0,88,0.02,,SKC,0.02,VWS V14.00,2018-04-25 10:30:00,